Regional Weather Roundup
Issued by NWS Midland/Odessa, TX

Skip options and go directly to product.
Home | Oldest Version | Previous Version | Current Version | All | Text Only | Save Text | Print | Product List | Glossary On

Skip product version selection by date and time.   
586
ASUS44 KMAF 111010
RWRMAF
MIDLAND AREA WEATHER ROUNDUP
NATIONAL WEATHER SERVICE MIDLAND TX
400 AM CST THU FEB 11 2016

...IN SOUTHWEST TEXAS AND SOUTHEAST NEW MEXICO...

CITY           SKY/WX    TMP DP  RH WIND       PRES   REMARKS
ALPINE         CLOUDY    45  15  30 SW6       30.26F
ANDREWS        FAIR      46  21  37 W8        30.11F
ARTESIA        CLOUDY    37  19  48 N8        30.16R WCI  31
BIG SPRING     CLEAR     42  22  45 SE5       30.13S WCI  39
CARLSBAD       CLOUDY    40  20  44 N5        30.13S WCI  37
DRYDEN           N/A     43  20  39 W7        30.12F WCI  39
FORT STOCKTON  CLEAR     50  18  28 SW16      30.14S
GUAD PASS      CLOUDY    48  14  25 SW10      30.24S
HOBBS          CLOUDY    41  18  38 W8        30.13F WCI  36
MARFA          CLOUDY    26  12  55 N3        30.24F
MIDLAND AIRPK  CLEAR     53  23  31 SW9       30.12S
MIDLAND INTL   CLEAR     48  23  37 SW8       30.11F
ODESSA         CLOUDY    47  22  37 SW7       30.12F
PECOS          CLOUDY    42  19  40 W7        30.13S WCI  38
PRESIDIO       FAIR      48  15  27 N6        30.18S
SEMINOLE       CLOUDY    41  19  39 W5        30.11F WCI  38
SNYDER           N/A     46  23  40 S5        30.10S
WINK           CLOUDY    31  20  63 N7        30.12S WCI  24
$$
...OTHER STATIONS IN TEXAS...

CITY           SKY/WX    TMP DP  RH WIND       PRES   REMARKS
ABILENE        CLEAR     57  26  30 SW14      30.06F
AMARILLO       CLOUDY    36  17  46 N9        30.12R WCI  29
AUSTIN         CLEAR     54  35  48 SW6       30.14S
BROWNSVILLE    CLEAR     58  53  84 S12       30.21F
CORPUS CHRISTI CLEAR     44  38  79 S7        30.18F
DALLAS FTW     CLEAR     50  31  48 SW12      30.01S
DEL RIO        CLEAR     51  27  39 E9        30.11F
EL PASO        MOCLDY    39  19  44 N6        30.22S WCI  35
HOUSTON INT    CLEAR     58  48  69 SW8       30.16F
LUBBOCK        CLOUDY    36  19  50 W12       30.08F WCI  28
SAN ANGELO     CLEAR     56  26  31 S14       30.10F
SAN ANTONIO    CLEAR     48  33  56 W5        30.17S
WACO           CLEAR     43  33  68 S9        30.08F WCI  38
WICHITA FALLS  NOT AVBL
$$
...OTHER LOCATIONS IN NEW MEXICO...

CITY           SKY/WX    TMP DP  RH WIND       PRES   REMARKS
ALAMAGORDO     CLEAR     37  14  38 N3        30.24S
ALBUQUERQUE    CLOUDY    42  22  44 N9        30.31S WCI  37
CANNON AFB     NOT AVBL
CLOVIS         CLOUDY    46  16  29 N20       30.11S WCI  39
HOLLOMAN AFB   CLEAR     32  12  43 NE6       30.22F WCI  27
ROSWELL        CLOUDY    36  20  52 CALM      30.14F
RUIDOSO          N/A     46  10  23 CALM      30.30S
SANTA FE       CLOUDY    36  19  50 N13       30.30S WCI  27
TRUTH OR CONSE CLEAR     44  15  31 NW10      30.28R WCI  39
TUCUMCARI      CLOUDY    41  12  30 N12       30.16R WCI  34
$$

USA.gov is the U.S. government's official web portal to all federal, state and local government web resources and services.